This demonstration page uses our WeatherBlox Daily Observations layout. Learn more.

Left ArrowRight Arrow

39.51506, -84.39828

Hourly Observations for September 2, 2016

Temp ( °F °C ) Dew Point ( °F °C ) Humidity (%) Winds ( mph kmh ) Pressure ( in mb ) Visibility ( mi km ) Precip ( " mm )
12:15 am 00:15 Clear 64 18 55 12.8 72 72 N 5 7 30.12 1020 10 16 N/A
12:35 am 00:35 Clear 63 17.2 54 12.3 73 73 N 6 9 30.12 1020 10 16 N/A
12:55 am 00:55 Clear 63 17 54 12.2 74 74 N 5 7 30.12 1020 10 16 N/A
1:15 am 01:15 Clear 63 17 54 12.2 74 74 N 5 7 30.12 1020 10 16 N/A
1:35 am 01:35 Clear 63 17 54 12.2 74 74 NNE 6 9 30.12 1020 10 16 N/A
1:55 am 01:55 Clear 62 16.6 54 12.1 75 75 NNE 6 9 30.15 1021 10 16 N/A
2:15 am 02:15 Clear 62 16.6 54 12.4 76 76 N 5 7 30.15 1021 10 16 N/A
2:35 am 02:35 Clear 61 16.3 54 12.1 76 76 N 6 9 30.15 1021 10 16 N/A
2:55 am 02:55 Clear 61 16 54 12 77 77 N 6 9 30.15 1021 10 16 N/A
3:15 am 03:15 Clear 61 16 53 11.8 76 76 N 6 9 30.15 1021 10 16 N/A
3:35 am 03:35 Clear 61 16 54 12 77 77 N 7 11 30.15 1021 10 16 N/A
3:55 am 03:55 Clear 61 16 54 12 77 77 N 6 9 30.15 1021 10 16 N/A
4:15 am 04:15 Clear 61 16 54 12.2 78 78 N 6 9 30.15 1021 10 16 N/A
4:35 am 04:35 Clear 60 15.3 53 11.8 80 80 N 6 9 30.15 1021 10 16 N/A
4:55 am 04:55 Clear 60 15.3 54 12 81 81 N 6 9 30.15 1021 10 16 N/A
5:15 am 05:15 Clear 60 15.3 54 12 81 81 NNW 8 13 30.15 1021 10 16 N/A
5:35 am 05:35 Clear 60 15.3 54 12.1 81 81 N 7 11 30.15 1021 10 16 N/A
5:55 am 05:55 Clear 60 15.3 54 12.1 81 81 N 3 6 30.18 1022 10 16 N/A
6:15 am 06:15 Clear 60 15.3 54 12.1 81 81 N 3 6 30.18 1022 10 16 N/A
6:35 am 06:35 Clear 60 15.3 54 12.2 82 82 N 5 7 30.18 1022 10 16 N/A
6:55 am 06:55 Clear 60 15.3 54 12 81 81 N 5 7 30.18 1022 10 16 N/A
7:15 am 07:15 Sunny 60 15.3 54 12 81 81 N 6 9 30.18 1022 10 16 N/A
7:35 am 07:35 Sunny 60 15.3 54 12 81 81 N 5 7 30.18 1022 10 16 N/A
7:55 am 07:55 Sunny 61 16 55 12.5 80 80 N 5 7 30.18 1022 10 16 N/A
8:15 am 08:15 Sunny 62 16.4 55 12.9 80 80 NNE 3 6 30.18 1022 10 16 N/A
8:35 am 08:35 Sunny 62 16.6 55 13 79 79 N 5 7 30.18 1022 10 16 N/A
8:55 am 08:55 Sunny 64 17.6 57 13.7 78 78 NNE 7 11 30.15 1021 10 16 N/A
9:15 am 09:15 Sunny 67 19.5 59 15 75 75 N 8 13 30.15 1021 10 16 N/A
9:35 am 09:35 Sunny 69 20.8 60 15.6 72 72 NNE 10 17 30.15 1021 10 16 N/A
9:55 am 09:55 Sunny 69 20.8 58 14.7 68 68 NNE 7 11 30.15 1021 10 16 N/A
10:15 am 10:15 Sunny 70 20.9 57 13.7 64 64 NNE 12 19 30.15 1021 10 16 N/A
10:35 am 10:35 Sunny 72 22.2 57 14 60 60 NNE 10 17 30.15 1021 10 16 N/A
10:55 am 10:55 Sunny 74 23.2 58 14.4 58 58 NE 10 17 30.18 1022 10 16 N/A
11:15 am 11:15 Sunny 74 23.6 56 13.6 54 54 NNE 12 19 30.15 1021 10 16 N/A
11:35 am 11:35 Partly Cloudy 74 23.6 55 12.9 51 51 ENE 12 19 30.15 1021 10 16 N/A
11:55 am 11:55 Sunny 74 23.6 53 11.4 46 46 NE 13 20 30.15 1021 10 16 N/A
12:15 pm 12:15 Sunny 75 24.1 53 11.6 46 46 NE 15 24 30.15 1021 10 16 N/A
12:35 pm 12:35 Sunny 77 24.9 53 11.8 44 44 NE 13 20 30.15 1021 10 16 N/A
12:55 pm 12:55 Partly Cloudy 77 25.1 53 11.9 44 44 NNE 13 20 30.15 1021 10 16 N/A
1:15 pm 13:15 Partly Cloudy 77 25.1 51 10.6 40 40 NE 15 24 30.15 1021 10 16 N/A
1:35 pm 13:35 Partly Cloudy 77 24.9 51 10.3 40 40 NE 16 26 30.15 1021 10 16 N/A
1:55 pm 13:55 Partly Cloudy 79 26 51 10.6 38 38 NE 16 26 30.15 1021 10 16 N/A
2:15 pm 14:15 Partly Cloudy 77 25 52 11 42 42 NE 14 22 30.12 1020 10 16 N/A
2:35 pm 14:35 Partly Cloudy 77 25.1 51 10.4 40 40 NE 14 22 30.12 1020 10 16 N/A
2:55 pm 14:55 Partly Cloudy 77 25.1 50 10.1 39 39 NE 15 24 30.12 1020 10 16 N/A
3:15 pm 15:15 Mostly Cloudy 77 25.1 50 10 39 39 NNE 14 22 30.12 1020 10 16 N/A
3:35 pm 15:35 Mostly Cloudy 78 25.7 50 10.1 37 37 NNE 12 19 30.12 1020 10 16 N/A
3:55 pm 15:55 Partly Cloudy 80 26.5 50 10.2 36 36 NE 13 20 30.09 1019 10 16 N/A
4:15 pm 16:15 Mostly Cloudy 77 25.1 50 9.9 38 38 NE 15 24 30.09 1019 10 16 N/A
4:35 pm 16:35 Mostly Cloudy 78 25.5 50 10.1 38 38 NE 16 26 30.09 1019 10 16 N/A
4:55 pm 16:55 Mostly Cloudy 77 25.1 50 9.8 38 38 NE 13 20 30.09 1019 10 16 N/A
5:15 pm 17:15 Partly Cloudy 77 25.1 50 10 39 39 NNE 14 22 30.09 1019 10 16 N/A
5:35 pm 17:35 Mostly Cloudy 77 25.1 49 9.5 37 37 NE 12 19 30.09 1019 10 16 N/A
5:55 pm 17:55 Partly Cloudy 77 25.1 49 9.5 37 37 NE 12 19 30.09 1019 10 16 N/A
6:15 pm 18:15 Mostly Cloudy 77 25.1 51 10.4 40 40 NE 13 20 30.09 1019 10 16 N/A
6:35 pm 18:35 Partly Cloudy 77 24.8 51 10.8 41 41 NE 9 15 30.09 1019 10 16 N/A
6:55 pm 18:55 Sunny 77 25.1 51 10.6 40 40 NNE 9 15 30.09 1019 10 16 N/A
7:15 pm 19:15 Partly Cloudy 77 25.1 53 11.6 43 43 NE 12 19 30.09 1019 10 16 N/A
7:35 pm 19:35 Sunny 74 23.6 52 11.2 46 46 NNE 5 7 30.09 1019 10 16 N/A
7:55 pm 19:55 Partly Cloudy 74 23.6 55 12.6 50 50 N 5 7 30.09 1019 10 16 N/A
8:15 pm 20:15 Partly Cloudy 74 23.6 57 14.1 55 55 N 5 7 30.09 1019 10 16 N/A
8:35 pm 20:35 Mostly Cloudy 73 22.5 56 13.6 57 57 N 7 11 30.09 1019 10 16 N/A
8:55 pm 20:55 Cloudy 73 22.7 57 14 58 58 N 6 9 30.12 1020 10 16 N/A
9:15 pm 21:15 Partly Cloudy 72 22.3 56 13.6 58 58 N 8 13 30.12 1020 10 16 N/A
9:35 pm 21:35 Clear 70 21.1 56 13.1 60 60 N 8 13 30.12 1020 10 16 N/A
9:55 pm 21:55 Clear 70 20.9 56 13.1 61 61 NNE 7 11 30.12 1020 10 16 N/A
10:15 pm 22:15 Clear 69 20.8 56 13.3 62 62 NNE 9 15 30.12 1020 10 16 N/A
10:35 pm 22:35 Clear 69 20.8 56 13.6 64 64 NNE 8 13 30.12 1020 10 16 N/A
10:55 pm 22:55 Clear 69 20.8 56 13.6 64 64 NNE 8 13 30.12 1020 10 16 N/A
11:15 pm 23:15 Clear 69 20.8 57 13.7 64 64 NNE 7 11 30.15 1021 10 16 N/A
11:35 pm 23:35 Clear 69 20.8 58 14.4 67 67 N 5 7 30.15 1021 10 16 N/A
11:55 pm 23:55 Clear 67 19.5 56 13.3 68 68 N 6 9 30.15 1021 10 16 N/A

Powered by AerisWeather